Year,Month,Day,Hour,Minute,Value (Times are PST for temperature in C)
2014,07,27,00,00,15.90
2014,07,27,00,01,15.90
2014,07,27,00,02,15.90
2014,07,27,00,03,15.90
2014,07,27,00,04,15.90
2014,07,27,00,05,15.90
2014,07,27,00,06,16.00
2014,07,27,00,07,16.00
2014,07,27,00,08,16.00
2014,07,27,00,09,16.00
2014,07,27,00,10,16.10
2014,07,27,00,11,16.10
2014,07,27,00,12,16.10
2014,07,27,00,13,16.10
2014,07,27,00,14,16.10
2014,07,27,00,15,16.20
2014,07,27,00,16,16.20
2014,07,27,00,17,16.20
2014,07,27,00,18,16.10
2014,07,27,00,19,16.10
2014,07,27,00,20,16.10
2014,07,27,00,21,16.10
2014,07,27,00,22,16.10
2014,07,27,00,23,16.10
2014,07,27,00,24,16.00
2014,07,27,00,25,16.00
2014,07,27,00,26,16.00
2014,07,27,00,27,16.00
2014,07,27,00,28,16.00
2014,07,27,00,29,15.90
2014,07,27,00,30,15.90
2014,07,27,00,31,15.90
2014,07,27,00,32,15.90
2014,07,27,00,33,15.90
2014,07,27,00,34,15.90
2014,07,27,00,35,15.80
2014,07,27,00,36,15.80
2014,07,27,00,37,15.80
2014,07,27,00,38,15.80
2014,07,27,00,39,15.80
2014,07,27,00,40,15.80
2014,07,27,00,41,15.80
2014,07,27,00,42,15.80
2014,07,27,00,43,15.80
2014,07,27,00,44,15.70
2014,07,27,00,45,15.70
2014,07,27,00,46,15.70
2014,07,27,00,47,15.60
2014,07,27,00,48,15.60
2014,07,27,00,49,15.60
2014,07,27,00,50,15.50
2014,07,27,00,51,15.50
2014,07,27,00,52,15.50
2014,07,27,00,53,15.40
2014,07,27,00,54,15.40
2014,07,27,00,55,15.30
2014,07,27,00,56,15.30
2014,07,27,00,57,15.30
2014,07,27,00,58,15.20
2014,07,27,00,59,15.20
2014,07,27,01,00,15.20
2014,07,27,01,01,15.10
2014,07,27,01,02,15.10
2014,07,27,01,03,15.10
2014,07,27,01,04,15.10
2014,07,27,01,05,15.10
2014,07,27,01,06,15.10
2014,07,27,01,07,15.10
2014,07,27,01,08,15.00
2014,07,27,01,09,15.00
2014,07,27,01,10,15.00
2014,07,27,01,11,15.00
2014,07,27,01,12,15.00
2014,07,27,01,13,15.00
2014,07,27,01,14,15.00
2014,07,27,01,15,15.00
2014,07,27,01,16,15.00
2014,07,27,01,17,15.00
2014,07,27,01,18,15.00
2014,07,27,01,19,15.00
2014,07,27,01,20,15.00
2014,07,27,01,21,15.00
2014,07,27,01,22,15.00
2014,07,27,01,23,15.00
2014,07,27,01,24,15.10
2014,07,27,01,25,15.10
2014,07,27,01,26,15.20
2014,07,27,01,27,15.20
2014,07,27,01,28,15.20
2014,07,27,01,29,15.20
2014,07,27,01,30,15.20
2014,07,27,01,31,15.20
2014,07,27,01,32,15.20
2014,07,27,01,33,15.20
2014,07,27,01,34,15.20
2014,07,27,01,35,15.10
2014,07,27,01,36,15.10
2014,07,27,01,37,15.00
2014,07,27,01,38,15.00
2014,07,27,01,39,15.00
2014,07,27,01,40,15.00
2014,07,27,01,41,15.00
2014,07,27,01,42,14.90
2014,07,27,01,43,14.90
2014,07,27,01,44,14.80
2014,07,27,01,45,14.80
2014,07,27,01,46,14.70
2014,07,27,01,47,14.70
2014,07,27,01,48,14.60
2014,07,27,01,49,14.60
2014,07,27,01,50,14.50
2014,07,27,01,51,14.50
2014,07,27,01,52,14.40
2014,07,27,01,53,14.40
2014,07,27,01,54,14.40
2014,07,27,01,55,14.40
2014,07,27,01,56,14.40
2014,07,27,01,57,14.40
2014,07,27,01,58,14.50
2014,07,27,01,59,14.50
2014,07,27,02,00,14.60
2014,07,27,02,01,14.60
2014,07,27,02,02,14.60
2014,07,27,02,03,14.60
2014,07,27,02,04,14.60
2014,07,27,02,05,14.60
2014,07,27,02,06,14.60
2014,07,27,02,07,14.60
2014,07,27,02,08,14.60
2014,07,27,02,09,14.60
2014,07,27,02,10,14.60
2014,07,27,02,11,14.60
2014,07,27,02,12,14.60
2014,07,27,02,13,14.60
2014,07,27,02,14,14.50
2014,07,27,02,15,14.50
2014,07,27,02,16,14.50
2014,07,27,02,17,14.50
2014,07,27,02,18,14.50
2014,07,27,02,19,14.50
2014,07,27,02,20,14.50
2014,07,27,02,21,14.50
2014,07,27,02,22,14.50
2014,07,27,02,23,14.50
2014,07,27,02,24,14.60
2014,07,27,02,25,14.60
2014,07,27,02,26,14.60
2014,07,27,02,27,14.60
2014,07,27,02,28,14.60
2014,07,27,02,29,14.70
2014,07,27,02,30,14.70
2014,07,27,02,31,14.70
2014,07,27,02,32,14.70
2014,07,27,02,33,14.70
2014,07,27,02,34,14.60
2014,07,27,02,35,14.60
2014,07,27,02,36,14.60
2014,07,27,02,37,14.60
2014,07,27,02,38,14.60
2014,07,27,02,39,14.50
2014,07,27,02,40,14.50
2014,07,27,02,41,14.40
2014,07,27,02,42,14.40
2014,07,27,02,43,14.40
2014,07,27,02,44,14.30
2014,07,27,02,45,14.30
2014,07,27,02,46,14.20
2014,07,27,02,47,14.20
2014,07,27,02,48,14.20
2014,07,27,02,49,14.20
2014,07,27,02,50,14.10
2014,07,27,02,51,14.10
2014,07,27,02,52,14.10
2014,07,27,02,53,14.00
2014,07,27,02,54,14.00
2014,07,27,02,55,13.90
2014,07,27,02,56,13.90
2014,07,27,02,57,13.90
2014,07,27,02,58,13.80
2014,07,27,02,59,13.80
2014,07,27,03,00,13.80
2014,07,27,03,01,13.80
2014,07,27,03,02,13.80
2014,07,27,03,03,13.70
2014,07,27,03,04,13.70
2014,07,27,03,05,13.70
2014,07,27,03,06,13.70
2014,07,27,03,07,13.70
2014,07,27,03,08,13.70
2014,07,27,03,09,13.70
2014,07,27,03,10,13.70
2014,07,27,03,11,13.70
2014,07,27,03,12,13.70
2014,07,27,03,13,13.70
2014,07,27,03,14,13.70
2014,07,27,03,15,13.70
2014,07,27,03,16,13.70
2014,07,27,03,17,13.70
2014,07,27,03,18,13.70
2014,07,27,03,19,13.70
2014,07,27,03,20,13.80
2014,07,27,03,21,13.80
2014,07,27,03,22,13.80
2014,07,27,03,23,13.80
2014,07,27,03,24,13.80
2014,07,27,03,25,13.80
2014,07,27,03,26,13.80
2014,07,27,03,27,13.80
2014,07,27,03,28,13.80
2014,07,27,03,29,13.80
2014,07,27,03,30,13.80
2014,07,27,03,31,13.80
2014,07,27,03,32,13.70
2014,07,27,03,33,13.70
2014,07,27,03,34,13.70
2014,07,27,03,35,13.70
2014,07,27,03,36,13.70
2014,07,27,03,37,13.60
2014,07,27,03,38,13.60
2014,07,27,03,39,13.60
2014,07,27,03,40,13.50
2014,07,27,03,41,13.50
2014,07,27,03,42,13.40
2014,07,27,03,43,13.40
2014,07,27,03,44,13.40
2014,07,27,03,45,13.30
2014,07,27,03,46,13.30
2014,07,27,03,47,13.30
2014,07,27,03,48,13.30
2014,07,27,03,49,13.30
2014,07,27,03,50,13.30
2014,07,27,03,51,13.30
2014,07,27,03,52,13.40
2014,07,27,03,53,13.40
2014,07,27,03,54,13.50
2014,07,27,03,55,13.50
2014,07,27,03,56,13.60
2014,07,27,03,57,13.60
2014,07,27,03,58,13.70
2014,07,27,03,59,13.70
2014,07,27,04,00,13.70
2014,07,27,04,01,13.80
2014,07,27,04,02,13.80
2014,07,27,04,03,13.80
2014,07,27,04,04,13.80
2014,07,27,04,05,13.80
2014,07,27,04,06,13.80
2014,07,27,04,07,13.80
2014,07,27,04,08,13.90
2014,07,27,04,09,13.80
2014,07,27,04,10,13.80
2014,07,27,04,11,13.80
2014,07,27,04,12,13.80
2014,07,27,04,13,13.80
2014,07,27,04,14,13.70
2014,07,27,04,15,13.70
2014,07,27,04,16,13.60
2014,07,27,04,17,13.60
2014,07,27,04,18,13.50
2014,07,27,04,19,13.50
2014,07,27,04,20,13.50
2014,07,27,04,21,13.40
2014,07,27,04,22,13.40
2014,07,27,04,23,13.30
2014,07,27,04,24,13.30
2014,07,27,04,25,13.30
2014,07,27,04,26,13.30
2014,07,27,04,27,13.30
2014,07,27,04,28,13.30
2014,07,27,04,29,13.30
2014,07,27,04,30,13.20
2014,07,27,04,31,13.30
2014,07,27,04,32,13.30
2014,07,27,04,33,13.30
2014,07,27,04,34,13.30
2014,07,27,04,35,13.30
2014,07,27,04,36,13.30
2014,07,27,04,37,13.30
2014,07,27,04,38,13.30
2014,07,27,04,39,13.30
2014,07,27,04,40,13.30
2014,07,27,04,41,13.30
2014,07,27,04,42,13.30
2014,07,27,04,43,13.30
2014,07,27,04,44,13.30
2014,07,27,04,45,13.30
2014,07,27,04,46,13.30
2014,07,27,04,47,13.20
2014,07,27,04,48,13.20
2014,07,27,04,49,13.20
2014,07,27,04,50,13.20
2014,07,27,04,51,13.20
2014,07,27,04,52,13.20
2014,07,27,04,53,13.20
2014,07,27,04,54,13.20
2014,07,27,04,55,13.20
2014,07,27,04,56,13.10
2014,07,27,04,57,13.10
2014,07,27,04,58,13.10
2014,07,27,04,59,13.10
2014,07,27,05,00,13.10
2014,07,27,05,01,13.10
2014,07,27,05,02,13.10
2014,07,27,05,03,13.10
2014,07,27,05,04,13.10
2014,07,27,05,05,13.20
2014,07,27,05,06,13.20
2014,07,27,05,07,13.20
2014,07,27,05,08,13.20
2014,07,27,05,09,13.20
2014,07,27,05,10,13.20
2014,07,27,05,11,13.20
2014,07,27,05,12,13.20
2014,07,27,05,13,13.30
2014,07,27,05,14,13.30
2014,07,27,05,15,13.30
2014,07,27,05,16,13.30
2014,07,27,05,17,13.20
2014,07,27,05,18,13.20
2014,07,27,05,19,13.20
2014,07,27,05,20,13.20
2014,07,27,05,21,13.20
2014,07,27,05,22,13.20
2014,07,27,05,23,13.20
2014,07,27,05,24,13.20
2014,07,27,05,25,13.20
2014,07,27,05,26,13.20
2014,07,27,05,27,13.20
2014,07,27,05,28,13.20
2014,07,27,05,29,13.20
2014,07,27,05,30,13.20
2014,07,27,05,31,13.10
2014,07,27,05,32,13.10
2014,07,27,05,33,13.10
2014,07,27,05,34,13.10
2014,07,27,05,35,13.10
2014,07,27,05,36,13.10
2014,07,27,05,37,13.10
2014,07,27,05,38,13.10
2014,07,27,05,39,13.10
2014,07,27,05,40,13.10
2014,07,27,05,41,13.10
2014,07,27,05,42,13.10
2014,07,27,05,43,13.10
2014,07,27,05,44,13.10
2014,07,27,05,45,13.20
2014,07,27,05,46,13.20
2014,07,27,05,47,13.20
2014,07,27,05,48,13.20
2014,07,27,05,49,13.20
2014,07,27,05,50,13.20
2014,07,27,05,51,13.20
2014,07,27,05,52,13.20
2014,07,27,05,53,13.20
2014,07,27,05,54,13.20
2014,07,27,05,55,13.20
2014,07,27,05,56,13.10
2014,07,27,05,57,13.10
2014,07,27,05,58,13.10
2014,07,27,05,59,13.10
2014,07,27,06,00,13.10
2014,07,27,06,01,13.10
2014,07,27,06,02,13.20
2014,07,27,06,03,13.20
2014,07,27,06,04,13.20
2014,07,27,06,05,13.20
2014,07,27,06,06,13.20
2014,07,27,06,07,13.20
2014,07,27,06,08,13.30
2014,07,27,06,09,13.30
2014,07,27,06,10,13.30
2014,07,27,06,11,13.30
2014,07,27,06,12,13.30
2014,07,27,06,13,13.30
2014,07,27,06,14,13.30
2014,07,27,06,15,13.30
2014,07,27,06,16,13.20
2014,07,27,06,17,13.20
2014,07,27,06,18,13.20
2014,07,27,06,19,13.20
2014,07,27,06,20,13.30
2014,07,27,06,21,13.30
2014,07,27,06,22,13.30
2014,07,27,06,23,13.30
2014,07,27,06,24,13.40
2014,07,27,06,25,13.50
2014,07,27,06,26,13.60
2014,07,27,06,27,13.60
2014,07,27,06,28,13.70
2014,07,27,06,29,13.80
2014,07,27,06,30,13.80
2014,07,27,06,31,13.80
2014,07,27,06,32,13.90
2014,07,27,06,33,13.90
2014,07,27,06,34,13.90
2014,07,27,06,35,14.00
2014,07,27,06,36,14.00
2014,07,27,06,37,14.10
2014,07,27,06,38,14.10
2014,07,27,06,39,14.20
2014,07,27,06,40,14.20
2014,07,27,06,41,14.20
2014,07,27,06,42,14.30
2014,07,27,06,43,14.30
2014,07,27,06,44,14.30
2014,07,27,06,45,14.40
2014,07,27,06,46,14.40
2014,07,27,06,47,14.40
2014,07,27,06,48,14.50
2014,07,27,06,49,14.50
2014,07,27,06,50,14.60
2014,07,27,06,51,14.60
2014,07,27,06,52,14.60
2014,07,27,06,53,14.70
2014,07,27,06,54,14.70
2014,07,27,06,55,14.70
2014,07,27,06,56,14.70
2014,07,27,06,57,14.80
2014,07,27,06,58,14.80
2014,07,27,06,59,14.80
2014,07,27,07,00,14.80
2014,07,27,07,01,14.80
2014,07,27,07,02,14.80
2014,07,27,07,03,14.80
2014,07,27,07,04,14.80
2014,07,27,07,05,14.90
2014,07,27,07,06,14.90
2014,07,27,07,07,15.00
2014,07,27,07,08,15.00
2014,07,27,07,09,15.00
2014,07,27,07,10,15.00
2014,07,27,07,11,15.00
2014,07,27,07,12,15.00
2014,07,27,07,13,15.00
2014,07,27,07,14,15.10
2014,07,27,07,15,15.10
2014,07,27,07,16,15.20
2014,07,27,07,17,15.30
2014,07,27,07,18,15.30
2014,07,27,07,19,15.40
2014,07,27,07,20,15.40
2014,07,27,07,21,15.50
2014,07,27,07,22,15.50
2014,07,27,07,23,15.60
2014,07,27,07,24,15.70
2014,07,27,07,25,15.70
2014,07,27,07,26,15.80
2014,07,27,07,27,15.90
2014,07,27,07,28,16.00
2014,07,27,07,29,16.00
2014,07,27,07,30,16.10
2014,07,27,07,31,16.20
2014,07,27,07,32,16.30
2014,07,27,07,33,16.40
2014,07,27,07,34,16.50
2014,07,27,07,35,16.60
2014,07,27,07,36,16.60
2014,07,27,07,37,16.70
2014,07,27,07,38,16.80
2014,07,27,07,39,16.90
2014,07,27,07,40,17.00
2014,07,27,07,41,17.10
2014,07,27,07,42,17.20
2014,07,27,07,43,17.30
2014,07,27,07,44,17.40
2014,07,27,07,45,17.50
2014,07,27,07,46,17.50
2014,07,27,07,47,17.60
2014,07,27,07,48,17.70
2014,07,27,07,49,17.80
2014,07,27,07,50,17.80
2014,07,27,07,51,17.90
2014,07,27,07,52,17.90
2014,07,27,07,53,18.00
2014,07,27,07,54,18.00
2014,07,27,07,55,18.10
2014,07,27,07,56,18.10
2014,07,27,07,57,18.10
2014,07,27,07,58,18.20
2014,07,27,07,59,18.20
2014,07,27,08,00,18.20
2014,07,27,08,01,18.20
2014,07,27,08,02,18.20
2014,07,27,08,03,18.30
2014,07,27,08,04,18.30
2014,07,27,08,05,18.30
2014,07,27,08,06,18.30
2014,07,27,08,07,18.40
2014,07,27,08,08,18.40
2014,07,27,08,09,18.50
2014,07,27,08,10,18.50
2014,07,27,08,11,18.60
2014,07,27,08,12,18.70
2014,07,27,08,13,18.70
2014,07,27,08,14,18.80
2014,07,27,08,15,18.90
2014,07,27,08,16,18.90
2014,07,27,08,17,19.00
2014,07,27,08,18,19.00
2014,07,27,08,19,19.10
2014,07,27,08,20,19.20
2014,07,27,08,21,19.20
2014,07,27,08,22,19.30
2014,07,27,08,23,19.30
2014,07,27,08,24,19.40
2014,07,27,08,25,19.40
2014,07,27,08,26,19.50
2014,07,27,08,27,19.60
2014,07,27,08,28,19.60
2014,07,27,08,29,19.60
2014,07,27,08,30,19.60
2014,07,27,08,31,19.60
2014,07,27,08,32,19.60
2014,07,27,08,33,19.60
2014,07,27,08,34,19.60
2014,07,27,08,35,19.60
2014,07,27,08,36,19.60
2014,07,27,08,37,19.60
2014,07,27,08,38,19.70
2014,07,27,08,39,19.70
2014,07,27,08,40,19.70
2014,07,27,08,41,19.80
2014,07,27,08,42,19.80
2014,07,27,08,43,19.90
2014,07,27,08,44,19.90
2014,07,27,08,45,19.90
2014,07,27,08,46,19.90
2014,07,27,08,47,19.90
2014,07,27,08,48,19.90
2014,07,27,08,49,19.80
2014,07,27,08,50,19.80
2014,07,27,08,51,19.80
2014,07,27,08,52,19.80
2014,07,27,08,53,19.80
2014,07,27,08,54,19.90
2014,07,27,08,55,19.90
2014,07,27,08,56,19.90
2014,07,27,08,57,20.00
2014,07,27,08,58,20.00
2014,07,27,08,59,20.10
2014,07,27,09,00,20.10
2014,07,27,09,01,20.20
2014,07,27,09,02,20.20
2014,07,27,09,03,20.30
2014,07,27,09,04,20.30
2014,07,27,09,05,20.30
2014,07,27,09,06,20.30
2014,07,27,09,07,20.30
2014,07,27,09,08,20.40
2014,07,27,09,09,20.40
2014,07,27,09,10,20.50
2014,07,27,09,11,20.60
2014,07,27,09,12,20.80
2014,07,27,09,13,20.90
2014,07,27,09,14,21.00
2014,07,27,09,15,21.10
2014,07,27,09,16,21.20
2014,07,27,09,17,21.30
2014,07,27,09,18,21.40
2014,07,27,09,19,21.50
2014,07,27,09,20,21.70
2014,07,27,09,21,21.80
2014,07,27,09,22,21.90
2014,07,27,09,23,22.00
2014,07,27,09,24,22.00
2014,07,27,09,25,22.00
2014,07,27,09,26,21.80
2014,07,27,09,27,21.50
2014,07,27,09,28,21.20
2014,07,27,09,29,21.00
2014,07,27,09,30,20.90
2014,07,27,09,31,20.90
2014,07,27,09,32,20.90
2014,07,27,09,33,20.90
2014,07,27,09,34,20.90
2014,07,27,09,35,20.90
2014,07,27,09,36,20.80
2014,07,27,09,37,20.80
2014,07,27,09,38,20.80
2014,07,27,09,39,20.80
2014,07,27,09,40,20.90
2014,07,27,09,41,21.00
2014,07,27,09,42,21.00
2014,07,27,09,43,20.90
2014,07,27,09,44,20.90
2014,07,27,09,45,20.90
2014,07,27,09,46,20.80
2014,07,27,09,47,20.90
2014,07,27,09,48,21.00
2014,07,27,09,49,21.20
2014,07,27,09,50,21.30
2014,07,27,09,51,21.30
2014,07,27,09,52,21.40
2014,07,27,09,53,21.30
2014,07,27,09,54,21.30
2014,07,27,09,55,21.30
2014,07,27,09,56,21.30
2014,07,27,09,57,21.30
2014,07,27,09,58,21.20
2014,07,27,09,59,21.20
2014,07,27,10,00,21.20
2014,07,27,10,01,21.20
2014,07,27,10,02,21.20
2014,07,27,10,03,21.20
2014,07,27,10,04,21.20
2014,07,27,10,05,21.10
2014,07,27,10,06,21.10
2014,07,27,10,07,21.10
2014,07,27,10,08,21.10
2014,07,27,10,09,21.10
2014,07,27,10,10,21.10
2014,07,27,10,11,21.10
2014,07,27,10,12,21.10
2014,07,27,10,13,21.20
2014,07,27,10,14,21.30
2014,07,27,10,15,21.40
2014,07,27,10,16,21.50
2014,07,27,10,17,21.50
2014,07,27,10,18,21.50
2014,07,27,10,19,21.60
2014,07,27,10,20,21.60
2014,07,27,10,21,21.60
2014,07,27,10,22,21.70
2014,07,27,10,23,21.80
2014,07,27,10,24,21.90
2014,07,27,10,25,22.00
2014,07,27,10,26,22.10
2014,07,27,10,27,22.20
2014,07,27,10,28,22.30
2014,07,27,10,29,22.30
2014,07,27,10,30,22.30
2014,07,27,10,31,22.30
2014,07,27,10,32,22.30
2014,07,27,10,33,22.20
2014,07,27,10,34,22.20
2014,07,27,10,35,22.20
2014,07,27,10,36,22.20
2014,07,27,10,37,22.30
2014,07,27,10,38,22.30
2014,07,27,10,39,22.40
2014,07,27,10,40,22.40
2014,07,27,10,41,22.50
2014,07,27,10,42,22.40
2014,07,27,10,43,22.40
2014,07,27,10,44,22.40
2014,07,27,10,45,22.40
2014,07,27,10,46,22.50
2014,07,27,10,47,22.60
2014,07,27,10,48,22.70
2014,07,27,10,49,22.70
2014,07,27,10,50,22.70
2014,07,27,10,51,22.70
2014,07,27,10,52,22.70
2014,07,27,10,53,22.70
2014,07,27,10,54,22.70
2014,07,27,10,55,22.80
2014,07,27,10,56,22.70
2014,07,27,10,57,22.70
2014,07,27,10,58,22.70
2014,07,27,10,59,22.80
2014,07,27,11,00,22.80
2014,07,27,11,01,22.70
2014,07,27,11,02,22.80
2014,07,27,11,03,22.80
2014,07,27,11,04,22.80
2014,07,27,11,05,22.90
2014,07,27,11,06,22.90
2014,07,27,11,07,22.90
2014,07,27,11,08,22.90
2014,07,27,11,09,22.80
2014,07,27,11,10,22.70
2014,07,27,11,11,22.70
2014,07,27,11,12,22.70
2014,07,27,11,13,22.70
2014,07,27,11,14,22.80
2014,07,27,11,15,22.90
2014,07,27,11,16,22.90
2014,07,27,11,17,22.90
2014,07,27,11,18,22.80
2014,07,27,11,19,22.80
2014,07,27,11,20,22.80
2014,07,27,11,21,22.90
2014,07,27,11,22,22.90
2014,07,27,11,23,22.90
2014,07,27,11,24,22.80
2014,07,27,11,25,22.70
2014,07,27,11,26,22.80
2014,07,27,11,27,22.90
2014,07,27,11,28,23.00
2014,07,27,11,29,23.10
2014,07,27,11,30,23.20
2014,07,27,11,31,23.20
2014,07,27,11,32,23.20
2014,07,27,11,33,23.10
2014,07,27,11,34,23.10
2014,07,27,11,35,23.20
2014,07,27,11,36,23.30
2014,07,27,11,37,23.40
2014,07,27,11,38,23.50
2014,07,27,11,39,23.50
2014,07,27,11,40,23.60
2014,07,27,11,41,23.60
2014,07,27,11,42,23.70
2014,07,27,11,43,23.70
2014,07,27,11,44,23.70
2014,07,27,11,45,23.80
2014,07,27,11,46,23.70
2014,07,27,11,47,23.50
2014,07,27,11,48,23.40
2014,07,27,11,49,23.50
2014,07,27,11,50,23.50
2014,07,27,11,51,23.50
2014,07,27,11,52,23.50
2014,07,27,11,53,23.40
2014,07,27,11,54,23.50
2014,07,27,11,55,23.50
2014,07,27,11,56,23.60
2014,07,27,11,57,23.50
2014,07,27,11,58,23.50
2014,07,27,11,59,23.60
2014,07,27,12,00,23.60
2014,07,27,12,01,23.70
2014,07,27,12,02,23.70
2014,07,27,12,03,23.70
2014,07,27,12,04,23.50
2014,07,27,12,05,23.40
2014,07,27,12,06,23.50
2014,07,27,12,07,23.60
2014,07,27,12,08,23.70
2014,07,27,12,09,23.80
2014,07,27,12,10,23.80
2014,07,27,12,11,23.70
2014,07,27,12,12,23.70
2014,07,27,12,13,23.70
2014,07,27,12,14,23.70
2014,07,27,12,15,23.70
2014,07,27,12,16,23.70
2014,07,27,12,17,23.70
2014,07,27,12,18,23.80
2014,07,27,12,19,23.80
2014,07,27,12,20,23.90
2014,07,27,12,21,24.00
2014,07,27,12,22,24.00
2014,07,27,12,23,24.10
2014,07,27,12,24,24.10
2014,07,27,12,25,24.10
2014,07,27,12,26,24.10
2014,07,27,12,27,24.20
2014,07,27,12,28,24.20
2014,07,27,12,29,24.20
2014,07,27,12,30,24.20
2014,07,27,12,31,24.10
2014,07,27,12,32,24.00
2014,07,27,12,33,23.80
2014,07,27,12,34,23.70
2014,07,27,12,35,23.70
2014,07,27,12,36,23.70
2014,07,27,12,37,23.70
2014,07,27,12,38,23.80
2014,07,27,12,39,23.90
2014,07,27,12,40,24.00
2014,07,27,12,41,24.10
2014,07,27,12,42,24.30
2014,07,27,12,43,24.40
2014,07,27,12,44,24.50
2014,07,27,12,45,24.70
2014,07,27,12,46,24.80
2014,07,27,12,47,25.00
2014,07,27,12,48,25.10
2014,07,27,12,49,25.10
2014,07,27,12,50,25.00
2014,07,27,12,51,24.80
2014,07,27,12,52,24.70
2014,07,27,12,53,24.60
2014,07,27,12,54,24.50
2014,07,27,12,55,24.50
2014,07,27,12,56,24.50
2014,07,27,12,57,24.60
2014,07,27,12,58,24.60
2014,07,27,12,59,24.60
2014,07,27,13,00,24.50
2014,07,27,13,01,24.30
2014,07,27,13,02,24.20
2014,07,27,13,03,24.10
2014,07,27,13,04,24.10
2014,07,27,13,05,24.20
2014,07,27,13,06,24.10
2014,07,27,13,07,24.10
2014,07,27,13,08,24.10
2014,07,27,13,09,24.00
2014,07,27,13,10,24.10
2014,07,27,13,11,24.20
2014,07,27,13,12,24.20
2014,07,27,13,13,24.20
2014,07,27,13,14,24.40
2014,07,27,13,15,24.50
2014,07,27,13,16,24.50
2014,07,27,13,17,24.50
2014,07,27,13,18,24.50
2014,07,27,13,19,24.50
2014,07,27,13,20,24.40
2014,07,27,13,21,24.40
2014,07,27,13,22,24.50
2014,07,27,13,23,24.50
2014,07,27,13,24,24.60
2014,07,27,13,25,24.70
2014,07,27,13,26,24.70
2014,07,27,13,27,24.70
2014,07,27,13,28,24.70
2014,07,27,13,29,24.70
2014,07,27,13,30,24.70
2014,07,27,13,31,24.70
2014,07,27,13,32,24.70
2014,07,27,13,33,24.70
2014,07,27,13,34,24.70
2014,07,27,13,35,24.70
2014,07,27,13,36,24.70
2014,07,27,13,37,24.80
2014,07,27,13,38,24.80
2014,07,27,13,39,24.80
2014,07,27,13,40,24.70
2014,07,27,13,41,24.70
2014,07,27,13,42,24.80
2014,07,27,13,43,24.90
2014,07,27,13,44,25.00
2014,07,27,13,45,25.10
2014,07,27,13,46,25.20
2014,07,27,13,47,25.20
2014,07,27,13,48,25.20
2014,07,27,13,49,25.20
2014,07,27,13,50,25.30
2014,07,27,13,51,25.40
2014,07,27,13,52,25.50
2014,07,27,13,53,25.50
2014,07,27,13,54,25.50
2014,07,27,13,55,25.40
2014,07,27,13,56,25.50
2014,07,27,13,57,25.40
2014,07,27,13,58,25.40
2014,07,27,13,59,25.30
2014,07,27,14,00,25.30
2014,07,27,14,01,25.30
2014,07,27,14,02,25.20
2014,07,27,14,03,25.30
2014,07,27,14,04,25.30
2014,07,27,14,05,25.20
2014,07,27,14,06,25.20
2014,07,27,14,07,25.20
2014,07,27,14,08,25.20
2014,07,27,14,09,25.20
2014,07,27,14,10,25.10
2014,07,27,14,11,25.00
2014,07,27,14,12,25.00
2014,07,27,14,13,24.90
2014,07,27,14,14,25.00
2014,07,27,14,15,25.10
2014,07,27,14,16,25.10
2014,07,27,14,17,25.10
2014,07,27,14,18,25.00
2014,07,27,14,19,24.90
2014,07,27,14,20,24.90
2014,07,27,14,21,24.80
2014,07,27,14,22,24.70
2014,07,27,14,23,24.70
2014,07,27,14,24,24.60
2014,07,27,14,25,24.40
2014,07,27,14,26,24.50
2014,07,27,14,27,24.60
2014,07,27,14,28,24.70
2014,07,27,14,29,24.60
2014,07,27,14,30,24.60
2014,07,27,14,31,24.60
2014,07,27,14,32,24.50
2014,07,27,14,33,24.40
2014,07,27,14,34,24.50
2014,07,27,14,35,24.50
2014,07,27,14,36,24.60
2014,07,27,14,37,24.70
2014,07,27,14,38,24.80
2014,07,27,14,39,24.90
2014,07,27,14,40,25.00
2014,07,27,14,41,25.10
2014,07,27,14,42,25.10
2014,07,27,14,43,25.10
2014,07,27,14,44,25.10
2014,07,27,14,45,25.10
2014,07,27,14,46,25.20
2014,07,27,14,47,25.20
2014,07,27,14,48,25.30
2014,07,27,14,49,25.20
2014,07,27,14,50,25.20
2014,07,27,14,51,25.10
2014,07,27,14,52,25.10
2014,07,27,14,53,25.10
2014,07,27,14,54,25.00
2014,07,27,14,55,25.00
2014,07,27,14,56,24.90
2014,07,27,14,57,24.90
2014,07,27,14,58,24.90
2014,07,27,14,59,25.00
2014,07,27,15,00,25.00
2014,07,27,15,01,25.10
2014,07,27,15,02,25.20
2014,07,27,15,03,25.30
2014,07,27,15,04,25.30
2014,07,27,15,05,25.30
2014,07,27,15,06,25.30
2014,07,27,15,07,25.30
2014,07,27,15,08,25.20
2014,07,27,15,09,25.20
2014,07,27,15,10,25.20
2014,07,27,15,11,25.10
2014,07,27,15,12,25.10
2014,07,27,15,13,25.10
2014,07,27,15,14,25.10
2014,07,27,15,15,25.10
2014,07,27,15,16,25.10
2014,07,27,15,17,25.20
2014,07,27,15,18,25.10
2014,07,27,15,19,25.10
2014,07,27,15,20,25.10
2014,07,27,15,21,25.10
2014,07,27,15,22,25.10
2014,07,27,15,23,25.20
2014,07,27,15,24,25.20
2014,07,27,15,25,25.20
2014,07,27,15,26,25.10
2014,07,27,15,27,25.10
2014,07,27,15,28,25.10
2014,07,27,15,29,25.10
2014,07,27,15,30,25.20
2014,07,27,15,31,25.20
2014,07,27,15,32,25.20
2014,07,27,15,33,25.20
2014,07,27,15,34,25.30
2014,07,27,15,35,25.40
2014,07,27,15,36,25.50
2014,07,27,15,37,25.50
2014,07,27,15,38,25.60
2014,07,27,15,39,25.60
2014,07,27,15,40,25.60
2014,07,27,15,41,25.70
2014,07,27,15,42,25.80
2014,07,27,15,43,25.80
2014,07,27,15,44,25.90
2014,07,27,15,45,25.90
2014,07,27,15,46,25.90
2014,07,27,15,47,26.00
2014,07,27,15,48,26.10
2014,07,27,15,49,26.10
2014,07,27,15,50,26.20
2014,07,27,15,51,26.10
2014,07,27,15,52,26.10
2014,07,27,15,53,26.10
2014,07,27,15,54,26.10
2014,07,27,15,55,26.20
2014,07,27,15,56,26.30
2014,07,27,15,57,26.30
2014,07,27,15,58,26.30
2014,07,27,15,59,26.20
2014,07,27,16,00,26.20
2014,07,27,16,01,26.20
2014,07,27,16,02,26.20
2014,07,27,16,03,26.20
2014,07,27,16,04,26.20
2014,07,27,16,05,26.20
2014,07,27,16,06,26.30
2014,07,27,16,07,26.30
2014,07,27,16,08,26.30
2014,07,27,16,09,26.40
2014,07,27,16,10,26.40
2014,07,27,16,11,26.50
2014,07,27,16,12,26.50
2014,07,27,16,13,26.50
2014,07,27,16,14,26.50
2014,07,27,16,15,26.50
2014,07,27,16,16,26.50
2014,07,27,16,17,26.60
2014,07,27,16,18,26.60
2014,07,27,16,19,26.60
2014,07,27,16,20,26.60
2014,07,27,16,21,26.70
2014,07,27,16,22,26.80
2014,07,27,16,23,26.80
2014,07,27,16,24,26.80
2014,07,27,16,25,26.80
2014,07,27,16,26,26.80
2014,07,27,16,27,26.70
2014,07,27,16,28,26.70
2014,07,27,16,29,26.70
2014,07,27,16,30,26.60
2014,07,27,16,31,26.60
2014,07,27,16,32,26.60
2014,07,27,16,33,26.70
2014,07,27,16,34,26.70
2014,07,27,16,35,26.80
2014,07,27,16,36,26.80
2014,07,27,16,37,26.90
2014,07,27,16,38,26.90
2014,07,27,16,39,26.90
2014,07,27,16,40,27.00
2014,07,27,16,41,27.00
2014,07,27,16,42,27.00
2014,07,27,16,43,27.00
2014,07,27,16,44,27.00
2014,07,27,16,45,27.10
2014,07,27,16,46,27.20
2014,07,27,16,47,27.20
2014,07,27,16,48,27.30
2014,07,27,16,49,27.30
2014,07,27,16,50,27.20
2014,07,27,16,51,27.00
2014,07,27,16,52,26.90
2014,07,27,16,53,26.90
2014,07,27,16,54,27.00
2014,07,27,16,55,27.10
2014,07,27,16,56,27.20
2014,07,27,16,57,27.30
2014,07,27,16,58,27.40
2014,07,27,16,59,27.50
2014,07,27,17,00,27.40
2014,07,27,17,01,27.40
2014,07,27,17,02,27.30
2014,07,27,17,03,27.30
2014,07,27,17,04,27.30
2014,07,27,17,05,27.40
2014,07,27,17,06,27.50
2014,07,27,17,07,27.60
2014,07,27,17,08,27.70
2014,07,27,17,09,27.80
2014,07,27,17,10,27.80
2014,07,27,17,11,27.80
2014,07,27,17,12,27.70
2014,07,27,17,13,27.80
2014,07,27,17,14,27.80
2014,07,27,17,15,27.80
2014,07,27,17,16,27.90
2014,07,27,17,17,28.00
2014,07,27,17,18,28.10
2014,07,27,17,19,28.20